| time (UTC) | temp F | wind direction | speed knots | gust knots | rain 1hr in | rain 24hr in | rain mn in | humidity % | barometer mb |
| 20260507015006 | 58 | 223 | 0.9 | 7.8 | 0.00 | 0.00 | 0.00 | 73 | 1021.9 |
| 20260507014505 | 58 | 267 | 1.7 | 4.3 | 0.00 | 0.00 | 0.00 | 73 | 1021.8 |
| 20260507014005 | 58 | 253 | 0.9 | 7.0 | 0.00 | 0.00 | 0.00 | 74 | 1021.8 |
| 20260507013505 | 58 | 237 | 0.9 | 7.0 | 0.00 | 0.00 | 0.00 | 73 | 1021.8 |
| 20260507013005 | 58 | 244 | 1.7 | 7.0 | 0.00 | 0.00 | 0.00 | 72 | 1021.9 |
| 20260507012505 | 59 | 249 | 0.9 | 4.3 | 0.00 | 0.00 | 0.00 | 72 | 1021.9 |
| 20260507012006 | 59 | 221 | 0.9 | 4.3 | 0.00 | 0.00 | 0.00 | 73 | 1021.9 |
| 20260507011505 | 59 | 247 | 0.9 | 2.6 | 0.00 | 0.00 | 0.00 | 72 | 1022.0 |
| 20260507010505 | 60 | 244 | 0.9 | 7.0 | 0.00 | 0.00 | 0.00 | 71 | 1022.0 |
| 20260507010005 | 60 | 225 | 1.7 | 7.0 | 0.00 | 0.00 | 0.00 | 70 | 1022.1 |
| 20260507005505 | 60 | 252 | 1.7 | 7.0 | 0.00 | 0.00 | 0.00 | 71 | 1022.1 |
| 20260507005005 | 60 | 233 | 1.7 | 7.0 | 0.00 | 0.00 | 0.00 | 71 | 1022.1 |
| 20260507004505 | 60 | 218 | 0.9 | 4.3 | 0.00 | 0.00 | 0.00 | 70 | 1022.1 |
| 20260507004006 | 60 | 214 | 0.9 | 6.1 | 0.00 | 0.00 | 0.00 | 71 | 1022.0 |
| 20260507003505 | 60 | 206 | 1.7 | 7.0 | 0.00 | 0.00 | 0.00 | 70 | 1022.0 |
| 20260507003005 | 60 | 243 | 2.6 | 7.0 | 0.00 | 0.00 | 0.00 | 69 | 1022.0 |
| 20260507002505 | 60 | 215 | 1.7 | 7.0 | 0.00 | 0.00 | 0.00 | 70 | 1022.2 |
| 20260507002005 | 60 | 256 | 0.9 | 7.0 | 0.00 | 0.00 | 0.00 | 69 | 1022.0 |
| 20260507001505 | 61 | 235 | 1.7 | 6.1 | 0.00 | 0.00 | 0.00 | 69 | 1022.0 |
| 20260507001005 | 61 | 228 | 1.7 | 6.1 | 0.00 | 0.00 | 0.00 | 70 | 1022.1 |
| 20260507000505 | 61 | 214 | 0.9 | 2.6 | 0.00 | 0.00 | 0.00 | 70 | 1022.2 |
| 20260507000005 | 61 | 206 | 0.9 | 2.6 | 0.00 | 0.00 | 0.00 | 69 | 1022.1 |
| 20260506235505 | 61 | 191 | 1.7 | 5.2 | 0.00 | 0.00 | 0.00 | 69 | 1022.1 |
| 20260506225505 | 61 | 232 | 0.9 | 6.1 | 0.00 | 0.00 | 0.00 | 71 | 1022.0 |
| 20260506225005 | 61 | 206 | 1.7 | 6.1 | 0.00 | 0.00 | 0.00 | 71 | 1022.0 |
| 20260506224505 | 61 | 261 | 1.7 | 6.1 | 0.00 | 0.00 | 0.00 | 71 | 1022.0 |
| 20260506224005 | 61 | 240 | 2.6 | 5.2 | 0.00 | 0.00 | 0.00 | 70 | 1022.2 |
| 20260506223505 | 61 | 256 | 0.9 | 2.6 | 0.00 | 0.00 | 0.00 | 69 | 1022.2 |
| 20260506223005 | 61 | 222 | 0.9 | 2.6 | 0.00 | 0.00 | 0.00 | 70 | 1022.3 |
| 20260506222504 | 62 | 241 | 0.9 | 2.6 | 0.00 | 0.00 | 0.00 | 70 | 1022.2 |
| 20260506222005 | 61 | 254 | 0.9 | 2.6 | 0.00 | 0.00 | 0.00 | 69 | 1022.2 |
| 20260506221505 | 62 | 201 | 0.9 | 6.1 | 0.00 | 0.00 | 0.00 | 69 | 1022.3 |
| 20260506221005 | 62 | 38 | 1.7 | 6.1 | 0.00 | 0.00 | 0.00 | 68 | 1022.4 |
| 20260506220505 | 62 | 178 | 0.9 | 4.3 | 0.00 | 0.00 | 0.00 | 68 | 1022.4 |
| 20260506220005 | 62 | 246 | 0.9 | 7.0 | 0.00 | 0.00 | 0.00 | 68 | 1022.3 |
| 20260506215504 | 62 | 260 | 0.9 | 7.0 | 0.00 | 0.00 | 0.00 | 69 | 1022.2 |
| 20260506215006 | 62 | 272 | 1.7 | 4.3 | 0.00 | 0.00 | 0.00 | 68 | 1022.2 |
| 20260506214505 | 62 | 250 | 1.7 | 6.1 | 0.00 | 0.00 | 0.00 | 69 | 1022.3 |
| 20260506214005 | 62 | 231 | 1.7 | 6.1 | 0.00 | 0.00 | 0.00 | 68 | 1022.3 |
| 20260506213506 | 63 | 213 | 0.9 | 2.6 | 0.00 | 0.00 | 0.00 | 69 | 1022.3 |
| 20260506213005 | 63 | 221 | 0.0 | 2.6 | 0.00 | 0.00 | 0.00 | 69 | 1022.2 |
| 20260506212506 | 63 | 202 | 0.9 | 6.1 | 0.00 | 0.00 | 0.00 | 67 | 1022.3 |
| 20260506212005 | 63 | 194 | 1.7 | 6.1 | 0.00 | 0.00 | 0.00 | 67 | 1022.2 |
| 20260506211505 | 64 | 225 | 0.9 | 5.2 | 0.00 | 0.00 | 0.00 | 67 | 1022.3 |
| 20260506211005 | 64 | 197 | 0.9 | 4.3 | 0.00 | 0.00 | 0.00 | 68 | 1022.2 |
| 20260506210505 | 64 | 263 | 0.9 | 6.1 | 0.00 | 0.00 | 0.00 | 66 | 1022.2 |
| 20260506210005 | 64 | 188 | 1.7 | 6.1 | 0.00 | 0.00 | 0.00 | 66 | 1022.3 |
| 20260506205505 | 64 | 228 | 1.7 | 6.1 | 0.00 | 0.00 | 0.00 | 65 | 1022.2 |
| 20260506205006 | 64 | 291 | 0.9 | 5.2 | 0.00 | 0.00 | 0.00 | 67 | 1022.2 |
| 20260506204505 | 64 | 229 | 0.9 | 5.2 | 0.00 | 0.00 | 0.00 | 69 | 1022.1 |
| 20260506204005 | 63 | 9 | 1.7 | 2.6 | 0.00 | 0.00 | 0.00 | 67 | 1022.2 |
| 20260506203505 | 63 | 345 | 0.9 | 4.3 | 0.00 | 0.00 | 0.00 | 69 | 1022.3 |
| 20260506203005 | 62 | 344 | 1.7 | 4.3 | 0.00 | 0.00 | 0.00 | 69 | 1022.3 |
| 20260506202505 | 62 | 280 | 1.7 | 2.6 | 0.00 | 0.00 | 0.00 | 68 | 1022.2 |
| 20260506202005 | 62 | 205 | 0.9 | 2.6 | 0.00 | 0.00 | 0.00 | 70 | 1022.1 |
| 20260506201505 | 62 | 26 | 0.9 | 2.6 | 0.00 | 0.00 | 0.00 | 70 | 1022.1 |
| 20260506201005 | 61 | 212 | 0.9 | 2.6 | 0.00 | 0.00 | 0.00 | 70 | 1022.1 |
| 20260506200505 | 61 | 237 | 0.0 | 7.0 | 0.00 | 0.00 | 0.00 | 71 | 1022.1 |
| 20260506200005 | 61 | 228 | 0.9 | 7.0 | 0.00 | 0.00 | 0.00 | 70 | 1022.1 |
| 20260506195505 | 61 | 235 | 1.7 | 7.0 | 0.00 | 0.00 | 0.00 | 71 | 1022.1 |
| 20260506195005 | 61 | 284 | 1.7 | 2.6 | 0.00 | 0.00 | 0.00 | 69 | 1022.1 |
| 20260506194504 | 61 | 240 | 0.9 | 1.7 | 0.00 | 0.00 | 0.00 | 70 | 1022.0 |
| 20260506194005 | 61 | 163 | 0.9 | 2.6 | 0.00 | 0.00 | 0.00 | 71 | 1022.1 |
| 20260506193504 | 61 | 71 | 0.9 | 2.6 | 0.00 | 0.00 | 0.00 | 70 | 1022.1 |
| 20260506193005 | 61 | 253 | 0.9 | 1.7 | 0.00 | 0.00 | 0.00 | 70 | 1022.0 |
| 20260506192504 | 61 | 355 | 0.9 | 2.6 | 0.00 | 0.00 | 0.00 | 71 | 1022.1 |
| 20260506192005 | 61 | 2 | 0.9 | 2.6 | 0.00 | 0.00 | 0.00 | 70 | 1022.2 |
| 20260506191508 | 61 | 206 | 0.9 | 2.6 | 0.00 | 0.00 | 0.00 | 70 | 1022.1 |
| 20260506191005 | 61 | 258 | 0.9 | 2.6 | 0.00 | 0.00 | 0.00 | 71 | 1022.0 |
| 20260506190504 | 60 | 248 | 0.9 | 2.6 | 0.00 | 0.00 | 0.00 | 71 | 1022.0 |
| 20260506190006 | 60 | 228 | 1.7 | 2.6 | 0.00 | 0.00 | 0.00 | 71 | 1022.1 |
| 20260506185505 | 60 | 195 | 0.9 | 2.6 | 0.00 | 0.00 | 0.00 | 72 | 1021.8 |
| 20260506185005 | 60 | 218 | 0.9 | 2.6 | 0.00 | 0.00 | 0.00 | 70 | 1022.1 |
| 20260506184505 | 60 | 241 | 0.9 | 2.6 | 0.00 | 0.00 | 0.00 | 71 | 1022.1 |
| 20260506184005 | 60 | 176 | 0.9 | 2.6 | 0.00 | 0.00 | 0.00 | 71 | 1022.1 |
| 20260506183505 | 60 | 282 | 0.9 | 2.6 | 0.00 | 0.00 | 0.00 | 72 | 1022.1 |
| 20260506183006 | 60 | 211 | 0.9 | 2.6 | 0.00 | 0.00 | 0.00 | 71 | 1022.1 |
| 20260506182505 | 60 | 250 | 0.9 | 2.6 | 0.00 | 0.00 | 0.00 | 70 | 1022.0 |
| 20260506182005 | 60 | 284 | 1.7 | 2.6 | 0.00 | 0.00 | 0.00 | 70 | 1022.0 |
| 20260506181504 | 60 | 193 | 0.9 | 2.6 | 0.00 | 0.00 | 0.00 | 71 | 1022.0 |
| 20260506181007 | 60 | 68 | 0.9 | 1.7 | 0.00 | 0.00 | 0.00 | 70 | 1021.9 |
| 20260506180508 | 60 | 246 | 0.9 | 1.7 | 0.00 | 0.00 | 0.00 | 71 | 1021.9 |
| 20260506180007 | 60 | 62 | 0.9 | 1.7 | 0.00 | 0.00 | 0.00 | 72 | 1021.9 |
| 20260506175508 | 59 | 236 | 0.9 | 2.6 | 0.00 | 0.00 | 0.00 | 72 | 1022.0 |
| 20260506175008 | 59 | 204 | 0.9 | 2.6 | 0.00 | 0.00 | 0.00 | 72 | 1022.0 |
| 20260506174508 | 59 | 202 | 0.0 | 2.6 | 0.00 | 0.00 | 0.00 | 74 | 1022.0 |
| 20260506174008 | 59 | 217 | 0.9 | 2.6 | 0.00 | 0.00 | 0.00 | 74 | 1022.0 |
| 20260506173508 | 59 | 207 | 0.0 | 2.6 | 0.00 | 0.00 | 0.00 | 74 | 1021.8 |
| 20260506173008 | 58 | 262 | 0.9 | 2.6 | 0.00 | 0.00 | 0.00 | 74 | 1021.9 |
| 20260506172508 | 58 | 204 | 0.9 | 2.6 | 0.00 | 0.00 | 0.00 | 74 | 1021.8 |
| 20260506172008 | 58 | 246 | 0.9 | 1.7 | 0.00 | 0.00 | 0.00 | 75 | 1021.8 |
| 20260506171507 | 58 | 262 | 0.9 | 2.6 | 0.00 | 0.00 | 0.00 | 74 | 1021.6 |
| 20260506171007 | 58 | 245 | 0.9 | 2.6 | 0.00 | 0.00 | 0.00 | 75 | 1021.6 |
| 20260506170508 | 58 | 352 | 0.9 | 1.7 | 0.00 | 0.00 | 0.00 | 76 | 1021.6 |
| 20260506170007 | 58 | 232 | 0.0 | 1.7 | 0.00 | 0.00 | 0.00 | 76 | 1021.7 |
| 20260506165508 | 58 | 238 | 0.0 | 2.6 | 0.00 | 0.00 | 0.00 | 77 | 1021.7 |
| 20260506165007 | 58 | 190 | 0.9 | 2.6 | 0.00 | 0.00 | 0.00 | 76 | 1021.7 |
| 20260506164507 | 58 | 214 | 0.9 | 2.6 | 0.00 | 0.00 | 0.00 | 76 | 1021.5 |
| 20260506164008 | 57 | 194 | 0.9 | 2.6 | 0.00 | 0.00 | 0.00 | 77 | 1021.6 |
| 20260506163507 | 57 | 292 | 0.0 | 1.7 | 0.00 | 0.00 | 0.00 | 76 | 1021.5 |
| 20260506163007 | 57 | 200 | 0.9 | 2.6 | 0.00 | 0.00 | 0.00 | 77 | 1021.4 |
| 20260506162507 | 57 | 225 | 0.9 | 2.6 | 0.00 | 0.00 | 0.00 | 77 | 1021.4 |
| 20260506162007 | 57 | 193 | 1.7 | 2.6 | 0.00 | 0.00 | 0.00 | 76 | 1021.4 |
| 20260506161508 | 57 | 204 | 0.9 | 1.7 | 0.00 | 0.00 | 0.00 | 76 | 1021.4 |
| 20260506161007 | 57 | 305 | 0.9 | 1.7 | 0.00 | 0.00 | 0.00 | 76 | 1021.4 |
| 20260506160507 | 57 | 134 | 0.0 | 2.6 | 0.00 | 0.00 | 0.00 | 77 | 1021.5 |
| 20260506160007 | 57 | 221 | 0.0 | 2.6 | 0.00 | 0.00 | 0.00 | 77 | 1021.4 |
| 20260506155507 | 57 | 257 | 0.9 | 2.6 | 0.00 | 0.00 | 0.00 | 76 | 1021.4 |
| 20260506155007 | 56 | 264 | 0.9 | 2.6 | 0.00 | 0.00 | 0.00 | 77 | 1021.3 |
| 20260506154507 | 56 | 255 | 0.0 | 4.3 | 0.00 | 0.00 | 0.00 | 78 | 1021.3 |
| 20260506154007 | 56 | 209 | 1.7 | 4.3 | 0.00 | 0.00 | 0.00 | 78 | 1021.3 |
| 20260506153507 | 56 | 242 | 0.0 | 1.7 | 0.00 | 0.00 | 0.00 | 77 | 1021.3 |
| 20260506153007 | 56 | 236 | 0.9 | 1.7 | 0.00 | 0.00 | 0.00 | 79 | 1021.3 |
| 20260506152507 | 56 | 209 | 0.9 | 1.7 | 0.00 | 0.00 | 0.00 | 78 | 1021.2 |
| 20260506152007 | 56 | 222 | 0.9 | 1.7 | 0.00 | 0.00 | 0.00 | 79 | 1021.3 |
| 20260506151507 | 56 | 259 | 0.0 | 1.7 | 0.00 | 0.00 | 0.00 | 78 | 1021.3 |
| 20260506151008 | 56 | 258 | 0.9 | 4.3 | 0.00 | 0.00 | 0.00 | 79 | 1021.3 |
| 20260506150507 | 56 | 236 | 0.9 | 4.3 | 0.00 | 0.00 | 0.00 | 78 | 1021.0 |
| 20260506150007 | 55 | 213 | 0.9 | 2.6 | 0.00 | 0.00 | 0.00 | 79 | 1020.9 |
| 20260506145507 | 55 | 205 | 1.7 | 2.6 | 0.00 | 0.00 | 0.00 | 80 | 1020.9 |
| 20260506145007 | 55 | 196 | 0.0 | 2.6 | 0.00 | 0.00 | 0.00 | 79 | 1020.7 |
| 20260506144507 | 55 | 199 | 0.9 | 2.6 | 0.00 | 0.00 | 0.00 | 80 | 1020.6 |
| 20260506144007 | 55 | 176 | 0.9 | 2.6 | 0.00 | 0.00 | 0.00 | 80 | 1020.6 |
| 20260506143511 | 55 | 179 | 1.7 | 2.6 | 0.00 | 0.00 | 0.00 | 80 | 1020.7 |
| 20260506143007 | 55 | 184 | 0.9 | 2.6 | 0.00 | 0.00 | 0.00 | 80 | 1020.8 |
| 20260506142507 | 55 | 220 | 0.0 | 2.6 | 0.00 | 0.00 | 0.00 | 80 | 1021.0 |
| 20260506142008 | 55 | 269 | 0.9 | 2.6 | 0.00 | 0.00 | 0.00 | 80 | 1021.1 |
| 20260506141507 | 55 | 244 | 0.0 | 1.7 | 0.00 | 0.00 | 0.00 | 81 | 1021.1 |
| 20260506141007 | 55 | 245 | 0.9 | 2.6 | 0.00 | 0.00 | 0.00 | 80 | 1021.1 |
| 20260506140507 | 55 | 196 | 0.9 | 2.6 | 0.00 | 0.00 | 0.00 | 81 | 1021.2 |
| 20260506140007 | 55 | 261 | 0.0 | 0.9 | 0.00 | 0.00 | 0.00 | 82 | 1021.2 |
| 20260506135507 | 55 | 291 | 0.0 | 0.9 | 0.00 | 0.00 | 0.00 | 82 | 1021.0 |
| 20260506135007 | 55 | 291 | 0.0 | 2.6 | 0.00 | 0.00 | 0.00 | 82 | 1021.0 |
| 20260506134506 | 55 | 269 | 0.0 | 2.6 | 0.00 | 0.00 | 0.00 | 82 | 1020.9 |
| 20260506134007 | 55 | 269 | 0.9 | 1.7 | 0.00 | 0.00 | 0.00 | 82 | 1020.9 |
| 20260506133506 | 55 | 247 | 0.0 | 1.7 | 0.00 | 0.00 | 0.00 | 82 | 1021.0 |
| 20260506133007 | 55 | 289 | 0.9 | 1.7 | 0.00 | 0.00 | 0.00 | 82 | 1020.8 |
| 20260506132506 | 55 | 221 | 0.0 | 0.9 | 0.00 | 0.00 | 0.00 | 83 | 1020.6 |
| 20260506132007 | 55 | 217 | 0.0 | 1.7 | 0.00 | 0.00 | 0.00 | 83 | 1020.6 |
| 20260506131507 | 55 | 242 | 0.0 | 2.6 | 0.00 | 0.00 | 0.00 | 83 | 1020.4 |
| 20260506131007 | 55 | 201 | 0.9 | 2.6 | 0.00 | 0.00 | 0.00 | 82 | 1020.4 |
| 20260506130507 | 55 | 248 | 0.0 | 2.6 | 0.00 | 0.00 | 0.00 | 82 | 1020.5 |
| 20260506130007 | 55 | 229 | 0.9 | 2.6 | 0.00 | 0.00 | 0.00 | 82 | 1020.5 |
| 20260506125507 | 55 | 230 | 0.0 | 1.7 | 0.00 | 0.00 | 0.00 | 83 | 1020.3 |
| 20260506125008 | 55 | 215 | 0.9 | 1.7 | 0.00 | 0.00 | 0.00 | 83 | 1020.4 |
| 20260506124507 | 55 | 249 | 0.0 | 1.7 | 0.00 | 0.00 | 0.00 | 82 | 1020.2 |
| 20260506124007 | 55 | 208 | 0.0 | 1.7 | 0.00 | 0.00 | 0.00 | 83 | 1020.2 |
| 20260506123507 | 55 | 231 | 0.0 | 1.7 | 0.00 | 0.00 | 0.00 | 83 | 1020.2 |
| 20260506123007 | 55 | 231 | 0.0 | 1.7 | 0.00 | 0.00 | 0.00 | 83 | 1020.2 |
| 20260506122507 | 55 | 210 | 0.0 | 0.9 | 0.00 | 0.00 | 0.00 | 84 | 1020.1 |
| 20260506122007 | 55 | 210 | 0.0 | 0.9 | 0.00 | 0.00 | 0.00 | 84 | 1020.1 |
| 20260506121507 | 55 | 210 | 0.0 | 2.6 | 0.00 | 0.00 | 0.00 | 84 | 1020.1 |
| 20260506121007 | 55 | 200 | 0.0 | 2.6 | 0.00 | 0.00 | 0.00 | 84 | 1020.1 |
| 20260506120507 | 55 | 192 | 0.9 | 2.6 | 0.00 | 0.00 | 0.00 | 83 | 1020.1 |
| 20260506120006 | 55 | 198 | 0.9 | 2.6 | 0.00 | 0.00 | 0.00 | 83 | 1020.0 |
| 20260506115507 | 55 | 204 | 0.9 | 2.6 | 0.00 | 0.00 | 0.00 | 83 | 1020.0 |
| 20260506115007 | 55 | 234 | 0.0 | 2.6 | 0.00 | 0.00 | 0.00 | 82 | 1020.0 |
| 20260506114508 | 55 | 234 | 0.9 | 2.6 | 0.00 | 0.00 | 0.00 | 82 | 1020.0 |
| 20260506114007 | 55 | 228 | 0.0 | 0.9 | 0.00 | 0.00 | 0.00 | 82 | 1019.9 |
| 20260506113507 | 55 | 220 | 0.0 | 1.7 | 0.00 | 0.00 | 0.00 | 83 | 1019.8 |
| 20260506113007 | 55 | 196 | 0.0 | 2.6 | 0.00 | 0.00 | 0.00 | 83 | 1019.8 |
| 20260506112507 | 55 | 187 | 0.9 | 2.6 | 0.00 | 0.00 | 0.00 | 83 | 1019.9 |
| 20260506112007 | 55 | 205 | 0.0 | 0.9 | 0.00 | 0.00 | 0.00 | 84 | 1019.9 |
| 20260506111507 | 55 | 205 | 0.0 | 1.7 | 0.00 | 0.00 | 0.00 | 83 | 1019.9 |
| 20260506111007 | 55 | 205 | 0.0 | 1.7 | 0.00 | 0.00 | 0.00 | 83 | 1019.9 |
| 20260506110507 | 55 | 209 | 0.0 | 1.7 | 0.00 | 0.00 | 0.00 | 82 | 1019.9 |
| 20260506110007 | 55 | 244 | 0.0 | 1.7 | 0.00 | 0.00 | 0.00 | 82 | 1019.8 |
| 20260506105507 | 55 | 244 | 0.0 | 1.7 | 0.00 | 0.00 | 0.00 | 82 | 1019.7 |
| 20260506105008 | 55 | 241 | 0.0 | 1.7 | 0.00 | 0.00 | 0.00 | 82 | 1019.6 |
| 20260506104506 | 55 | 265 | 0.0 | 2.6 | 0.00 | 0.00 | 0.00 | 81 | 1019.6 |
| 20260506104008 | 55 | 283 | 0.9 | 2.6 | 0.00 | 0.00 | 0.00 | 81 | 1019.5 |
| 20260506103507 | 55 | 272 | 0.0 | 4.3 | 0.00 | 0.00 | 0.00 | 81 | 1019.5 |
| 20260506103007 | 55 | 202 | 0.9 | 4.3 | 0.00 | 0.00 | 0.00 | 81 | 1019.4 |
| 20260506102507 | 55 | 273 | 0.9 | 1.7 | 0.00 | 0.00 | 0.00 | 81 | 1019.3 |
| 20260506092007 | 56 | 243 | 0.0 | 2.6 | 0.00 | 0.00 | 0.00 | 82 | 1019.0 |
| 20260506091506 | 56 | 236 | 0.0 | 2.6 | 0.00 | 0.00 | 0.00 | 82 | 1019.0 |
| 20260506091007 | 56 | 239 | 0.0 | 2.6 | 0.00 | 0.00 | 0.00 | 82 | 1019.0 |
| 20260506090507 | 56 | 266 | 0.9 | 2.6 | 0.00 | 0.00 | 0.00 | 82 | 1019.0 |
| 20260506090006 | 56 | 280 | 0.0 | 2.6 | 0.00 | 0.00 | 0.00 | 82 | 1019.0 |
| 20260506085507 | 56 | 225 | 0.0 | 2.6 | 0.00 | 0.00 | 0.00 | 82 | 1019.0 |
| 20260506085007 | 56 | 224 | 0.0 | 2.6 | 0.00 | 0.00 | 0.00 | 82 | 1019.1 |
| 20260506084507 | 56 | 220 | 0.0 | 2.6 | 0.00 | 0.00 | 0.00 | 82 | 1019.1 |
| 20260506084008 | 56 | 255 | 0.0 | 2.6 | 0.00 | 0.00 | 0.00 | 83 | 1019.0 |
| 20260506083507 | 56 | 207 | 0.9 | 2.6 | 0.00 | 0.00 | 0.00 | 83 | 1019.0 |
| 20260506083007 | 56 | 270 | 0.0 | 1.7 | 0.00 | 0.00 | 0.00 | 83 | 1018.9 |
| 20260506082506 | 56 | 296 | 0.0 | 1.7 | 0.00 | 0.00 | 0.00 | 82 | 1018.8 |
| 20260506082011 | 56 | 269 | 0.0 | 2.6 | 0.00 | 0.00 | 0.00 | 82 | 1018.8 |
| 20260506081507 | 56 | 201 | 0.9 | 2.6 | 0.00 | 0.00 | 0.00 | 82 | 1018.7 |
| 20260506081007 | 56 | 217 | 0.0 | 5.2 | 0.00 | 0.00 | 0.00 | 83 | 1018.7 |
| 20260506080507 | 56 | 266 | 0.9 | 5.2 | 0.00 | 0.00 | 0.00 | 82 | 1018.6 |
| 20260506073507 | 56 | 203 | 0.9 | 2.6 | 0.00 | 0.00 | 0.00 | 82 | 1018.2 |
| 20260506073007 | 56 | 232 | 0.9 | 5.2 | 0.00 | 0.00 | 0.00 | 82 | 1018.2 |
| 20260506072507 | 56 | 227 | 0.9 | 5.2 | 0.00 | 0.00 | 0.00 | 82 | 1018.2 |
| 20260506072007 | 56 | 243 | 0.0 | 4.3 | 0.00 | 0.00 | 0.00 | 82 | 1018.1 |
| 20260506071507 | 56 | 215 | 0.9 | 4.3 | 0.00 | 0.00 | 0.00 | 82 | 1018.1 |
| 20260506071007 | 56 | 203 | 0.0 | 4.3 | 0.00 | 0.00 | 0.00 | 82 | 1018.1 |
| 20260506070507 | 56 | 254 | 0.9 | 2.6 | 0.00 | 0.00 | 0.00 | 82 | 1018.1 |
| 20260506051007 | 55 | 252 | 0.0 | 2.6 | 0.00 | 0.00 | 0.00 | 82 | 1017.6 |
| 20260506050507 | 55 | 254 | 0.9 | 2.6 | 0.00 | 0.00 | 0.00 | 82 | 1017.6 |
| 20260506045006 | 56 | 242 | 0.9 | 2.6 | 0.00 | 0.00 | 0.00 | 81 | 1017.6 |
| 20260506044507 | 56 | 268 | 0.0 | 2.6 | 0.00 | 0.00 | 0.00 | 81 | 1017.6 |
| 20260506044007 | 56 | 242 | 0.9 | 1.7 | 0.00 | 0.00 | 0.00 | 81 | 1017.5 |
| 20260506043507 | 56 | 226 | 0.9 | 1.7 | 0.00 | 0.00 | 0.00 | 81 | 1017.5 |
| 20260506043006 | 56 | 229 | 0.0 | 2.6 | 0.00 | 0.00 | 0.00 | 81 | 1017.4 |
| 20260506042506 | 56 | 223 | 0.9 | 2.6 | 0.00 | 0.00 | 0.00 | 80 | 1017.4 |
| 20260506042006 | 56 | 190 | 0.0 | 1.7 | 0.00 | 0.00 | 0.00 | 80 | 1017.3 |
| 20260506041506 | 56 | 155 | 0.9 | 2.6 | 0.00 | 0.00 | 0.00 | 80 | 1017.3 |
| 20260506041007 | 57 | 236 | 0.0 | 2.6 | 0.00 | 0.00 | 0.00 | 79 | 1017.2 |
| 20260506040507 | 57 | 170 | 0.0 | 4.3 | 0.00 | 0.00 | 0.00 | 79 | 1017.1 |
| 20260506040006 | 57 | 219 | 0.9 | 4.3 | 0.00 | 0.00 | 0.00 | 79 | 1016.9 |
| 20260506035507 | 57 | 249 | 0.0 | 2.6 | 0.00 | 0.00 | 0.00 | 78 | 1016.9 |
| 20260506035007 | 57 | 261 | 0.9 | 5.2 | 0.00 | 0.00 | 0.00 | 78 | 1016.8 |
| 20260506034507 | 57 | 224 | 0.9 | 5.2 | 0.00 | 0.00 | 0.00 | 78 | 1016.8 |
| 20260506034006 | 58 | 255 | 0.9 | 6.1 | 0.00 | 0.00 | 0.00 | 77 | 1016.8 |
| 20260506033507 | 58 | 278 | 1.7 | 6.1 | 0.00 | 0.00 | 0.00 | 77 | 1016.7 |
| 20260506033006 | 58 | 227 | 0.9 | 4.3 | 0.00 | 0.00 | 0.00 | 77 | 1016.7 |
| 20260506032506 | 58 | 237 | 0.9 | 2.6 | 0.00 | 0.00 | 0.00 | 76 | 1016.6 |
| 20260506032007 | 59 | 232 | 0.9 | 2.6 | 0.00 | 0.00 | 0.00 | 76 | 1016.6 |
| 20260506031507 | 59 | 191 | 0.9 | 2.6 | 0.00 | 0.00 | 0.00 | 75 | 1016.5 |
| 20260506031006 | 59 | 196 | 0.9 | 2.6 | 0.00 | 0.00 | 0.00 | 75 | 1016.4 |
| 20260506030507 | 60 | 318 | 0.0 | 2.6 | 0.00 | 0.00 | 0.00 | 75 | 1016.4 |
| 20260506025506 | 60 | 222 | 1.7 | 2.6 | 0.00 | 0.00 | 0.00 | 74 | 1016.3 |
| 20260506025006 | 60 | 291 | 0.9 | 2.6 | 0.00 | 0.00 | 0.00 | 74 | 1016.2 |
| 20260506024507 | 61 | 240 | 1.7 | 5.2 | 0.00 | 0.00 | 0.00 | 73 | 1016.2 |
| 20260506024007 | 61 | 248 | 0.9 | 5.2 | 0.00 | 0.00 | 0.00 | 72 | 1016.2 |
| 20260506023506 | 61 | 169 | 0.9 | 5.2 | 0.00 | 0.00 | 0.00 | 72 | 1016.1 |
| 20260506023007 | 62 | 257 | 0.9 | 5.2 | 0.00 | 0.00 | 0.00 | 71 | 1016.1 |
| 20260506022507 | 62 | 218 | 0.9 | 4.3 | 0.00 | 0.00 | 0.00 | 72 | 1016.0 |
| 20260506022007 | 62 | 210 | 1.7 | 4.3 | 0.00 | 0.00 | 0.00 | 70 | 1016.1 |
| 20260506021506 | 63 | 177 | 0.0 | 2.6 | 0.00 | 0.00 | 0.00 | 71 | 1016.2 |
| 20260506021006 | 63 | 259 | 0.9 | 2.6 | 0.00 | 0.00 | 0.00 | 70 | 1016.2 |
| 20260506020506 | 63 | 204 | 0.9 | 2.6 | 0.00 | 0.00 | 0.00 | 70 | 1016.2 |
| 20260506020007 | 64 | 220 | 0.9 | 2.6 | 0.00 | 0.00 | 0.00 | 69 | 1016.2 |
| 20260506015506 | 65 | 203 | 1.7 | 4.3 | 0.00 | 0.00 | 0.00 | 68 | 1016.2 |